STARLINK-4617, 53675

Orbit data source: Space-Track

STARLINK-4617, 53675 is a payload satellite owned by SpaceX/Seattle (US) in SSO that was launched on Wed, 31 Aug 2022 UTC via an FALCON 9 launch vehicle from the Air Force Western Test Range (AFWTR). Payload-class satellites include a variety of spacecraft equipped with specific instruments for various scientific and technological missions. These include communications satellites like Starlink; space stations such as the ISS; scientific satellites like the Hubble; Earth observation satellites from companies like Planet Labs, Umbra, and HawkEye 360; GPS; miniature CubeSats for education and research; and military/defense satellites.

Loading next visibility...
Identifier
53675, 2022-105AD
Orbit
SSO
Last TLE update
1 day ago
Origin
Manufacturer
SpaceX/Seattle
Mission
Operational Commercial Communications
Bus & Motor
STARLINK, Unknown motor
Mass
300 kg wet, ~290 kg dry
Launch date (UTC)
2022-08-31 (3 years ago)
Launch vehicle
FALCON 9
Launch site
Air Force Western Test Range (AFWTR)
Object type
Payload
Rocket body
Debris
Shape & HBR
Box + 1 Pan, 4.4 m
Radar Cross Section
13.562 m², Large (>1 m²)

Expand to show TLE details & history

TLE from 1 day ago
0 STARLINK-4617
1 53675U 22105AD  25198.24916046  .00000105  00000-0  12750-4 0  9998
2 53675  97.6561  79.4318 0001091 103.4553 256.6793 15.01259800158199
Epoch: 2025-07-17T05:58Z
TLE epoch observation values (Epoch: 2025-07-17T05:58:47.463Z)
Latitude
-0.00003°
Longitude
54.41636°
Altitude
566.243 km
Speed
7.578 km/s
True Right ascension
05h 17m 43s
True Declination
0° 00' 00"
Sunlit
Object was in daylight at epoch
Visualization orbit readout
Latitude
-73.25172°
Longitude
81.8956°
Altitude
590.68 km
Speed
7.563 km/s
Apparent Right ascension
08h 53m 26s
Apparent Declination
-58° 18' 42"
Sunlit
Object is in daylight
Visualization observer readout
Local Sidereal Time
21:35:38
Azimuth
163.333° S
Elevation
-70.405°
Doppler factor
1
Orbital elements
Apogee altitude
560.769 km
Perigee altitude
559.255 km
Semi-major axis
6,938.149 km
Eccentricity
0.00011
Inclination
97.6561°
RAAN
79.4318°
Arg. of periapsis
103.4553°
True anomaly
256.66713°
Mean anomaly
256.6793°
Eccentric anomaly
256.67322°
Mean motion
3.75559 °/min
Orbital period
95.86 mins
BSTAR
0.00001275
Loading maneuver chart data...
Loading SW <> Apogee altitude chart data...
Loading historical data...
Loading historical data...
Loading historical data...
Loading historical data...
Loading historical data...
Loading historical data...
Loading historical data...
|